Terminal Aerodrome Forecast
Issued by NWS Charleston, WV

Current Version | Previous Version | Graphics & Text | Print | Product List | Glossary On
Versions: 1 2 3 4 5 6 7 8 9 10 11 12 13 14 15 16 17 18 19 20 21 22 23 24 25 26 27 28
000
FTUS41 KRLX 151724
TAFPKB
TAF
KPKB 151724Z 1518/1618 22011G22KT P6SM BKN030
     FM152100 22010G21KT 4SM SHRA BR OVC025
     FM152300 27010G21KT 6SM SHRA BR BKN010
     FM160000 29010G21KT P6SM BKN006
     FM160200 31009G16KT P6SM BKN025
     FM160500 32008KT P6SM BKN015
     FM161100 32006KT P6SM SCT025
     FM161600 32005KT P6SM FEW250=

USA.gov is the U.S. government's official web portal to all federal, state and local government web resources and services.